RHL219 TDPD-TVSM

Flight info

Callsign RHL219
Flight time 1h 22m
Altitude 10000
Route KAROT1 FOF A324 SV
Aircraft DHC6/L-SDFGR/C

Departure

Time 2026-04-18 22:09
Airport Douglas-Charles Airport (TDPD)

Arrival

Time 2026-04-18 23:31
Airport Mustique Airport (TVSM)
Time Latitude Longitude Altitude Speed Heading
2026-04-18 21:44 15.54535 -61.30181 87 ft 0 kts 72°
2026-04-18 22:02 15.54536 -61.30177 87 ft 1 kts 72°
2026-04-18 22:03 15.54538 -61.30170 87 ft 0 kts 72°
2026-04-18 22:03 15.54538 -61.30168 87 ft 0 kts 68°
2026-04-18 22:03 15.54541 -61.30165 87 ft 1 kts 53°
2026-04-18 22:03 15.54557 -61.30159 87 ft 3 kts 12°
2026-04-18 22:04 15.54578 -61.30167 88 ft 1 kts 297°
2026-04-18 22:04 15.54579 -61.30168 88 ft 0 kts 295°
2026-04-18 22:04 15.54582 -61.30176 88 ft 2 kts 295°
2026-04-18 22:04 15.54596 -61.30206 90 ft 6 kts 296°
2026-04-18 22:05 15.54614 -61.30244 91 ft 6 kts 286°
2026-04-18 22:05 15.54604 -61.30297 93 ft 7 kts 250°
2026-04-18 22:05 15.54591 -61.30336 95 ft 5 kts 251°
2026-04-18 22:05 15.54575 -61.30384 97 ft 8 kts 251°
2026-04-18 22:06 15.54551 -61.30446 100 ft 11 kts 247°
2026-04-18 22:06 15.54518 -61.30538 103 ft 14 kts 249°
2026-04-18 22:06 15.54497 -61.30620 106 ft 7 kts 192°
2026-04-18 22:06 15.54490 -61.30610 106 ft 1 kts 59°
2026-04-18 22:07 15.54496 -61.30600 105 ft 2 kts 72°
2026-04-18 22:07 15.54500 -61.30586 105 ft 13 kts 73°
2026-04-18 22:07 15.54579 -61.30363 97 ft 47 kts 64°
2026-04-18 22:08 15.54718 -61.29964 78 ft 67 kts 75°
2026-04-18 22:08 15.54865 -61.29549 146 ft 62 kts 77°
2026-04-18 22:08 15.55009 -61.29052 271 ft 78 kts 82°
2026-04-18 22:08 15.55071 -61.28519 548 ft 74 kts 90°
2026-04-18 22:09 15.55208 -61.27952 658 ft 90 kts 73°
2026-04-18 22:09 15.55434 -61.27342 848 ft 92 kts 73°
2026-04-18 22:09 15.55676 -61.26692 959 ft 100 kts 73°
2026-04-18 22:09 15.55950 -61.25952 981 ft 114 kts 72°
2026-04-18 22:10 15.56234 -61.25190 1169 ft 112 kts 72°
2026-04-18 22:10 15.56511 -61.24443 1352 ft 111 kts 72°
2026-04-18 22:10 15.56785 -61.23700 1522 ft 111 kts 72°
2026-04-18 22:10 15.57060 -61.22947 1707 ft 109 kts 72°
2026-04-18 22:11 15.57330 -61.22212 1874 ft 110 kts 72°
2026-04-18 22:11 15.57567 -61.21464 2039 ft 109 kts 88°
2026-04-18 22:11 15.57291 -61.20755 2197 ft 111 kts 128°
2026-04-18 22:11 15.56781 -61.20161 2353 ft 111 kts 128°
2026-04-18 22:12 15.55739 -61.18957 2640 ft 111 kts 128°
2026-04-18 22:12 15.55224 -61.18363 2774 ft 111 kts 128°
2026-04-18 22:12 15.54701 -61.17760 2904 ft 112 kts 128°
2026-04-18 22:13 15.54181 -61.17161 3029 ft 112 kts 128°
2026-04-18 22:13 15.53660 -61.16562 3154 ft 112 kts 128°
2026-04-18 22:13 15.53134 -61.15958 3278 ft 112 kts 128°
2026-04-18 22:13 15.52610 -61.15356 3393 ft 113 kts 128°
2026-04-18 22:14 15.52075 -61.14741 3499 ft 114 kts 128°
2026-04-18 22:14 15.51545 -61.14134 3611 ft 114 kts 128°
2026-04-18 22:14 15.51008 -61.13519 3723 ft 114 kts 128°
2026-04-18 22:14 15.50469 -61.12903 3790 ft 118 kts 129°
2026-04-18 22:15 15.49868 -61.12384 4038 ft 108 kts 146°
2026-04-18 22:15 15.49347 -61.11798 4012 ft 118 kts 129°
2026-04-18 22:15 15.48790 -61.11136 3985 ft 125 kts 122°
2026-04-18 22:15 15.48212 -61.10437 4035 ft 126 kts 129°
2026-04-18 22:16 15.47632 -61.09770 4099 ft 126 kts 129°
2026-04-18 22:16 15.47045 -61.09094 4150 ft 126 kts 129°
2026-04-18 22:16 15.46455 -61.08417 4180 ft 114 kts 129°
2026-04-18 22:16 15.45968 -61.07863 4008 ft 110 kts 128°
2026-04-18 22:17 15.45446 -61.07305 4162 ft 109 kts 143°
2026-04-18 22:17 15.44701 -61.07134 4325 ft 110 kts 171°
2026-04-18 22:17 15.43938 -61.07082 4466 ft 110 kts 171°
2026-04-18 22:17 15.43181 -61.07033 4592 ft 110 kts 171°
2026-04-18 22:18 15.42413 -61.06982 4719 ft 110 kts 171°
2026-04-18 22:18 15.41656 -61.06933 4840 ft 110 kts 171°
2026-04-18 22:18 15.40885 -61.06882 4959 ft 111 kts 171°
2026-04-18 22:18 15.40116 -61.06833 5074 ft 111 kts 171°
2026-04-18 22:19 15.39348 -61.06784 5188 ft 111 kts 171°
2026-04-18 22:19 15.38580 -61.06736 5300 ft 111 kts 172°
2026-04-18 22:19 15.37800 -61.06687 5411 ft 111 kts 172°
2026-04-18 22:19 15.37023 -61.06639 5522 ft 111 kts 172°
2026-04-18 22:20 15.36251 -61.06591 5627 ft 112 kts 172°
2026-04-18 22:20 15.35477 -61.06542 5729 ft 112 kts 172°
2026-04-18 22:20 15.34691 -61.06495 5832 ft 112 kts 172°
2026-04-18 22:20 15.33914 -61.06447 5930 ft 112 kts 172°
2026-04-18 22:21 15.33136 -61.06400 6027 ft 113 kts 172°
2026-04-18 22:21 15.32355 -61.06353 6123 ft 113 kts 172°
2026-04-18 22:21 15.31573 -61.06307 6216 ft 113 kts 172°
2026-04-18 22:21 15.30781 -61.06259 6311 ft 113 kts 172°
2026-04-18 22:22 15.29995 -61.06212 6417 ft 114 kts 172°
2026-04-18 22:22 15.29214 -61.06166 6531 ft 114 kts 172°
2026-04-18 22:22 15.28423 -61.06120 6644 ft 114 kts 172°
2026-04-18 22:22 15.27627 -61.06073 6754 ft 114 kts 172°
2026-04-18 22:23 15.26837 -61.06027 6856 ft 114 kts 172°
2026-04-18 22:23 15.26045 -61.05980 6963 ft 114 kts 173°
2026-04-18 22:23 15.25250 -61.05934 7069 ft 114 kts 173°
2026-04-18 22:23 15.24460 -61.05888 7169 ft 114 kts 173°
2026-04-18 22:24 15.23670 -61.05843 7267 ft 115 kts 173°
2026-04-18 22:24 15.22871 -61.05796 7364 ft 115 kts 173°
2026-04-18 22:24 15.22070 -61.05751 7461 ft 115 kts 173°
2026-04-18 22:24 15.21274 -61.05704 7553 ft 115 kts 173°
2026-04-18 22:25 15.20465 -61.05658 7645 ft 116 kts 173°
2026-04-18 22:25 15.19661 -61.05612 7735 ft 116 kts 173°
2026-04-18 22:25 15.18860 -61.05567 7821 ft 116 kts 173°
2026-04-18 22:25 15.18055 -61.05521 7907 ft 116 kts 173°
2026-04-18 22:26 15.17247 -61.05476 7991 ft 117 kts 173°
2026-04-18 22:26 15.16408 -61.05428 7975 ft 125 kts 174°
2026-04-18 22:26 15.15525 -61.05377 7984 ft 129 kts 174°
2026-04-18 22:26 15.14614 -61.05325 7985 ft 133 kts 174°
2026-04-18 22:27 15.13683 -61.05272 7984 ft 135 kts 174°
2026-04-18 22:27 15.12734 -61.05219 7983 ft 138 kts 174°
2026-04-18 22:27 15.11777 -61.05166 7984 ft 139 kts 174°
2026-04-18 22:27 15.10827 -61.05114 8051 ft 135 kts 174°
2026-04-18 22:28 15.09877 -61.05080 8107 ft 133 kts 177°
2026-04-18 22:28 15.08946 -61.05031 8108 ft 135 kts 174°
2026-04-18 22:28 15.08011 -61.04980 8138 ft 135 kts 174°
2026-04-18 22:28 15.07068 -61.04910 8155 ft 136 kts 174°
2026-04-18 22:29 15.06252 -61.04869 7986 ft 104 kts 173°
2026-04-18 22:29 15.05552 -61.04832 7712 ft 108 kts 173°
2026-04-18 22:29 15.04815 -61.04793 7852 ft 104 kts 173°
2026-04-18 22:29 15.04118 -61.04756 8009 ft 99 kts 173°
2026-04-18 22:30 15.03439 -61.04721 8135 ft 97 kts 173°
2026-04-18 22:30 15.02761 -61.04686 8248 ft 97 kts 173°
2026-04-18 22:30 15.02085 -61.04650 8353 ft 97 kts 173°
2026-04-18 22:30 15.01408 -61.04614 8459 ft 98 kts 173°
2026-04-18 22:31 15.00726 -61.04579 8563 ft 98 kts 173°
2026-04-18 22:31 15.00047 -61.04542 8664 ft 98 kts 175°
2026-04-18 22:31 14.99365 -61.04505 8763 ft 98 kts 173°
2026-04-18 22:31 14.98682 -61.04469 8862 ft 98 kts 174°
2026-04-18 22:32 14.97998 -61.04434 8958 ft 99 kts 175°
2026-04-18 22:32 14.97312 -61.04398 9052 ft 99 kts 172°
2026-04-18 22:32 14.96623 -61.04361 9146 ft 99 kts 176°
2026-04-18 22:32 14.95934 -61.04324 9236 ft 99 kts 174°
2026-04-18 22:33 14.95241 -61.04286 9326 ft 100 kts 174°
2026-04-18 22:33 14.94551 -61.04250 9414 ft 100 kts 177°
2026-04-18 22:33 14.93855 -61.04211 9499 ft 100 kts 172°
2026-04-18 22:33 14.93159 -61.04173 9584 ft 101 kts 178°
2026-04-18 22:34 14.92456 -61.04136 9665 ft 101 kts 172°
2026-04-18 22:34 14.91753 -61.04097 9750 ft 101 kts 178°
2026-04-18 22:34 14.91051 -61.04060 9829 ft 101 kts 175°
2026-04-18 22:34 14.90348 -61.04022 9909 ft 101 kts 174°
2026-04-18 22:35 14.89644 -61.03984 9962 ft 104 kts 178°
2026-04-18 22:35 14.88890 -61.03943 9961 ft 112 kts 175°
2026-04-18 22:35 14.88091 -61.03899 9956 ft 118 kts 175°
2026-04-18 22:35 14.87245 -61.03853 9954 ft 123 kts 176°
2026-04-18 22:36 14.86379 -61.03805 9951 ft 127 kts 176°
2026-04-18 22:36 14.85538 -61.03761 10082 ft 120 kts 176°
2026-04-18 22:36 14.84650 -61.03713 9977 ft 132 kts 176°
2026-04-18 22:36 14.83717 -61.03662 9947 ft 135 kts 176°
2026-04-18 22:37 14.82774 -61.03610 9951 ft 136 kts 176°
2026-04-18 22:37 14.81829 -61.03558 9951 ft 137 kts 176°
2026-04-18 22:37 14.80879 -61.03505 9951 ft 137 kts 176°
2026-04-18 22:37 14.79925 -61.03453 9951 ft 138 kts 176°
2026-04-18 22:38 14.78968 -61.03400 9951 ft 138 kts 176°
2026-04-18 22:38 14.78011 -61.03348 9951 ft 138 kts 176°
2026-04-18 22:38 14.77049 -61.03295 9951 ft 138 kts 176°
2026-04-18 22:38 14.76085 -61.03242 9951 ft 138 kts 176°
2026-04-18 22:39 14.75119 -61.03189 9951 ft 139 kts 176°
2026-04-18 22:39 14.74160 -61.03137 9951 ft 139 kts 176°
2026-04-18 22:39 14.73197 -61.03084 9950 ft 139 kts 176°
2026-04-18 22:39 14.72232 -61.03032 9950 ft 139 kts 176°
2026-04-18 22:40 14.71274 -61.02979 9950 ft 139 kts 176°
2026-04-18 22:40 14.70310 -61.02926 9951 ft 139 kts 176°
2026-04-18 22:40 14.69346 -61.02874 9951 ft 139 kts 176°
2026-04-18 22:40 14.68385 -61.02821 9950 ft 139 kts 176°
2026-04-18 22:41 14.67417 -61.02768 9951 ft 139 kts 176°
2026-04-18 22:41 14.66450 -61.02716 9950 ft 139 kts 176°
2026-04-18 22:41 14.65495 -61.02663 9951 ft 139 kts 176°
2026-04-18 22:41 14.64524 -61.02610 9950 ft 139 kts 176°
2026-04-18 22:42 14.63563 -61.02558 9951 ft 139 kts 176°
2026-04-18 22:42 14.62596 -61.02506 9950 ft 139 kts 176°
2026-04-18 22:42 14.61632 -61.02453 9950 ft 139 kts 176°
2026-04-18 22:42 14.60666 -61.02401 9950 ft 139 kts 176°
2026-04-18 22:43 14.59700 -61.02348 9951 ft 139 kts 176°
2026-04-18 22:43 14.58732 -61.02296 9950 ft 139 kts 176°
2026-04-18 22:43 14.57777 -61.02244 9951 ft 139 kts 176°
2026-04-18 22:43 14.56800 -61.02191 9950 ft 139 kts 176°
2026-04-18 22:44 14.55835 -61.02139 9950 ft 139 kts 176°
2026-04-18 22:44 14.54879 -61.02087 9950 ft 139 kts 176°
2026-04-18 22:44 14.53915 -61.02035 9950 ft 139 kts 176°
2026-04-18 22:44 14.52952 -61.01981 9945 ft 135 kts 175°
2026-04-18 22:45 14.52039 -61.01926 9944 ft 129 kts 175°
2026-04-18 22:45 14.51146 -61.01876 9950 ft 130 kts 176°
2026-04-18 22:45 14.50227 -61.01826 9954 ft 132 kts 176°
2026-04-18 22:45 14.49314 -61.01777 9953 ft 134 kts 176°
2026-04-18 22:46 14.48380 -61.01727 9952 ft 135 kts 176°
2026-04-18 22:46 14.47437 -61.01677 9952 ft 136 kts 176°
2026-04-18 22:46 14.46480 -61.01625 9952 ft 137 kts 176°
2026-04-18 22:46 14.45531 -61.01575 9951 ft 137 kts 176°
2026-04-18 22:47 14.44577 -61.01524 9951 ft 138 kts 176°
2026-04-18 22:47 14.43621 -61.01472 9951 ft 138 kts 176°
2026-04-18 22:47 14.42661 -61.01421 9951 ft 138 kts 176°
2026-04-18 22:47 14.41701 -61.01369 9951 ft 139 kts 176°
2026-04-18 22:48 14.40737 -61.01318 9951 ft 139 kts 176°
2026-04-18 22:48 14.39761 -61.01266 9951 ft 139 kts 176°
2026-04-18 22:48 14.38799 -61.01214 9951 ft 139 kts 176°
2026-04-18 22:48 14.37832 -61.01162 9950 ft 139 kts 176°
2026-04-18 22:49 14.36865 -61.01111 9951 ft 139 kts 176°
2026-04-18 22:49 14.35905 -61.01059 9951 ft 139 kts 176°
2026-04-18 22:49 14.34940 -61.01008 9952 ft 139 kts 176°
2026-04-18 22:49 14.33974 -61.00956 9950 ft 139 kts 176°
2026-04-18 22:50 14.33004 -61.00904 9951 ft 139 kts 176°
2026-04-18 22:50 14.32034 -61.00852 9951 ft 140 kts 176°
2026-04-18 22:50 14.31063 -61.00800 9951 ft 140 kts 176°
2026-04-18 22:50 14.30093 -61.00748 9951 ft 140 kts 176°
2026-04-18 22:51 14.29125 -61.00696 9951 ft 140 kts 176°
2026-04-18 22:51 14.28153 -61.00644 9951 ft 140 kts 176°
2026-04-18 22:51 14.27190 -61.00593 9951 ft 140 kts 176°
2026-04-18 22:51 14.26216 -61.00541 9951 ft 140 kts 176°
2026-04-18 22:52 14.25240 -61.00489 9951 ft 140 kts 176°
2026-04-18 22:52 14.24270 -61.00437 9951 ft 140 kts 176°
2026-04-18 22:52 14.23301 -61.00385 9951 ft 140 kts 176°
2026-04-18 22:52 14.22330 -61.00333 9951 ft 140 kts 176°
2026-04-18 22:53 14.21353 -61.00281 9951 ft 140 kts 176°
2026-04-18 22:53 14.20383 -61.00229 9951 ft 140 kts 176°
2026-04-18 22:53 14.19398 -61.00176 9950 ft 140 kts 176°
2026-04-18 22:53 14.18439 -61.00125 9909 ft 135 kts 176°
2026-04-18 22:54 14.17500 -61.00078 9827 ft 136 kts 176°
2026-04-18 22:54 14.16534 -61.00028 9675 ft 147 kts 176°
2026-04-18 22:54 14.15442 -60.99972 9354 ft 152 kts 175°
2026-04-18 22:54 14.14396 -60.99919 8795 ft 156 kts 174°
2026-04-18 22:55 14.13298 -60.99862 8338 ft 158 kts 174°
2026-04-18 22:55 14.12241 -60.99808 8114 ft 140 kts 174°
2026-04-18 22:55 14.11290 -60.99760 7969 ft 137 kts 174°
2026-04-18 22:55 14.10331 -60.99710 7946 ft 139 kts 174°
2026-04-18 22:56 14.09366 -60.99658 7950 ft 140 kts 174°
2026-04-18 22:56 14.08388 -60.99606 7950 ft 141 kts 174°
2026-04-18 22:56 14.07412 -60.99553 7949 ft 142 kts 174°
2026-04-18 22:56 14.06426 -60.99500 7949 ft 142 kts 174°
2026-04-18 22:57 14.05423 -60.99446 7949 ft 143 kts 174°
2026-04-18 22:57 14.04439 -60.99393 7949 ft 143 kts 174°
2026-04-18 22:57 14.03442 -60.99339 7949 ft 143 kts 174°
2026-04-18 22:57 14.02447 -60.99285 7967 ft 142 kts 174°
2026-04-18 22:58 14.01456 -60.99233 7974 ft 142 kts 174°
2026-04-18 22:58 14.00480 -60.99180 7976 ft 142 kts 174°
2026-04-18 22:58 13.99478 -60.99126 7975 ft 143 kts 174°
2026-04-18 22:58 13.98482 -60.99073 7976 ft 143 kts 174°
2026-04-18 22:59 13.97490 -60.99019 7976 ft 143 kts 174°
2026-04-18 22:59 13.96489 -60.98965 7975 ft 144 kts 174°
2026-04-18 22:59 13.95500 -60.98912 7975 ft 144 kts 174°
2026-04-18 22:59 13.94498 -60.98859 7975 ft 144 kts 174°
2026-04-18 23:00 13.93496 -60.98805 7976 ft 144 kts 174°
2026-04-18 23:00 13.92506 -60.98751 7975 ft 144 kts 174°
2026-04-18 23:00 13.91506 -60.98698 7975 ft 144 kts 174°
2026-04-18 23:00 13.90504 -60.98644 7974 ft 144 kts 174°
2026-04-18 23:01 13.89496 -60.98590 7972 ft 144 kts 174°
2026-04-18 23:01 13.88495 -60.98537 7970 ft 144 kts 174°
2026-04-18 23:01 13.87491 -60.98483 7969 ft 144 kts 174°
2026-04-18 23:01 13.86500 -60.98430 7967 ft 144 kts 174°
2026-04-18 23:02 13.85497 -60.98376 7966 ft 144 kts 174°
2026-04-18 23:02 13.84494 -60.98322 7964 ft 144 kts 174°
2026-04-18 23:02 13.83494 -60.98269 7962 ft 144 kts 174°
2026-04-18 23:02 13.82493 -60.98215 7960 ft 144 kts 174°
2026-04-18 23:03 13.81491 -60.98162 7959 ft 144 kts 174°
2026-04-18 23:03 13.80493 -60.98109 7957 ft 144 kts 174°
2026-04-18 23:03 13.79494 -60.98055 7954 ft 144 kts 174°
2026-04-18 23:03 13.78498 -60.98002 7953 ft 144 kts 174°
2026-04-18 23:04 13.77500 -60.97949 7952 ft 144 kts 174°
2026-04-18 23:04 13.76488 -60.97895 7951 ft 144 kts 174°
2026-04-18 23:04 13.75495 -60.97842 7948 ft 144 kts 174°
2026-04-18 23:04 13.74499 -60.97788 7948 ft 144 kts 174°
2026-04-18 23:05 13.73498 -60.97768 7938 ft 146 kts 187°
2026-04-18 23:05 13.72533 -60.98137 7950 ft 147 kts 199°
2026-04-18 23:05 13.71590 -60.98531 7950 ft 147 kts 199°
2026-04-18 23:05 13.70647 -60.98926 7949 ft 147 kts 199°
2026-04-18 23:06 13.69704 -60.99321 7948 ft 147 kts 199°
2026-04-18 23:06 13.68749 -60.99721 7948 ft 147 kts 199°
2026-04-18 23:06 13.67806 -61.00116 7948 ft 147 kts 199°
2026-04-18 23:06 13.66864 -61.00510 7948 ft 147 kts 199°
2026-04-18 23:07 13.65907 -61.00911 7948 ft 147 kts 199°
2026-04-18 23:07 13.64964 -61.01306 7948 ft 147 kts 199°
2026-04-18 23:07 13.64020 -61.01702 7949 ft 147 kts 199°
2026-04-18 23:07 13.63067 -61.02101 7948 ft 147 kts 199°
2026-04-18 23:08 13.62123 -61.02495 7949 ft 147 kts 199°
2026-04-18 23:08 13.61181 -61.02890 7949 ft 147 kts 199°
2026-04-18 23:08 13.60231 -61.03288 7948 ft 147 kts 199°
2026-04-18 23:08 13.59280 -61.03686 7949 ft 147 kts 199°
2026-04-18 23:09 13.58339 -61.04081 7948 ft 147 kts 199°
2026-04-18 23:09 13.57398 -61.04476 7948 ft 147 kts 199°
2026-04-18 23:09 13.56448 -61.04874 7949 ft 147 kts 199°
2026-04-18 23:09 13.55506 -61.05268 7948 ft 147 kts 199°
2026-04-18 23:10 13.54563 -61.05664 7948 ft 147 kts 199°
2026-04-18 23:10 13.53619 -61.06060 7949 ft 147 kts 199°
2026-04-18 23:10 13.52674 -61.06456 7949 ft 147 kts 199°
2026-04-18 23:10 13.51729 -61.06852 7948 ft 147 kts 199°
2026-04-18 23:11 13.50790 -61.07246 7949 ft 147 kts 199°
2026-04-18 23:11 13.49840 -61.07643 7949 ft 147 kts 199°
2026-04-18 23:11 13.48901 -61.08037 7948 ft 147 kts 199°
2026-04-18 23:11 13.47954 -61.08434 7949 ft 147 kts 199°
2026-04-18 23:12 13.47017 -61.08827 7948 ft 147 kts 199°
2026-04-18 23:12 13.46065 -61.09226 7948 ft 147 kts 199°
2026-04-18 23:12 13.45122 -61.09621 7949 ft 147 kts 199°
2026-04-18 23:12 13.44181 -61.10016 7948 ft 147 kts 199°
2026-04-18 23:13 13.43239 -61.10410 7949 ft 147 kts 199°
2026-04-18 23:13 13.42300 -61.10804 7948 ft 147 kts 199°
2026-04-18 23:13 13.41349 -61.11203 7949 ft 147 kts 199°
2026-04-18 23:13 13.40413 -61.11595 7949 ft 147 kts 199°
2026-04-18 23:14 13.39468 -61.11991 7949 ft 147 kts 199°
2026-04-18 23:14 13.38518 -61.12389 7949 ft 147 kts 200°
2026-04-18 23:14 13.37581 -61.12781 7948 ft 147 kts 199°
2026-04-18 23:14 13.36629 -61.13180 7948 ft 147 kts 199°
2026-04-18 23:15 13.35688 -61.13574 7948 ft 147 kts 199°
2026-04-18 23:15 13.34752 -61.13965 7949 ft 147 kts 199°
2026-04-18 23:15 13.33798 -61.14364 7949 ft 147 kts 199°
2026-04-18 23:15 13.32860 -61.14756 7949 ft 147 kts 199°
2026-04-18 23:16 13.31920 -61.15149 7948 ft 147 kts 199°
2026-04-18 23:16 13.30967 -61.15548 7949 ft 147 kts 199°
2026-04-18 23:16 13.30022 -61.15943 7949 ft 147 kts 199°
2026-04-18 23:16 13.29081 -61.16336 7949 ft 147 kts 199°
2026-04-18 23:17 13.28142 -61.16729 7949 ft 147 kts 199°
2026-04-18 23:17 13.27197 -61.17125 7948 ft 147 kts 199°
2026-04-18 23:17 13.26252 -61.17520 7949 ft 147 kts 199°
2026-04-18 23:17 13.25309 -61.17915 7949 ft 147 kts 199°
2026-04-18 23:18 13.24364 -61.18310 7949 ft 147 kts 199°
2026-04-18 23:18 13.23418 -61.18706 7949 ft 147 kts 199°
2026-04-18 23:18 13.22475 -61.19101 7949 ft 147 kts 199°
2026-04-18 23:18 13.21531 -61.19496 7949 ft 147 kts 199°
2026-04-18 23:19 13.20588 -61.19891 7949 ft 147 kts 199°
2026-04-18 23:19 13.19649 -61.20284 7948 ft 147 kts 200°
2026-04-18 23:19 13.18708 -61.20678 7950 ft 147 kts 199°
2026-04-18 23:19 13.17756 -61.21076 7950 ft 147 kts 199°
2026-04-18 23:20 13.16817 -61.21469 7949 ft 147 kts 200°
2026-04-18 23:20 13.15873 -61.21864 7949 ft 147 kts 200°
2026-04-18 23:20 13.14931 -61.22259 7949 ft 147 kts 200°
2026-04-18 23:20 13.13958 -61.22499 7940 ft 143 kts 171°
2026-04-18 23:21 13.12965 -61.22522 7950 ft 143 kts 180°
2026-04-18 23:21 13.11961 -61.22538 7950 ft 143 kts 178°
2026-04-18 23:21 13.10969 -61.22548 7951 ft 143 kts 178°
2026-04-18 23:21 13.09985 -61.22559 7891 ft 142 kts 178°
2026-04-18 23:22 13.09004 -61.22571 7764 ft 140 kts 178°
2026-04-18 23:22 13.08035 -61.22589 7515 ft 140 kts 178°
2026-04-18 23:22 13.07053 -61.22607 7240 ft 141 kts 178°
2026-04-18 23:23 13.05266 -61.22653 5957 ft 134 kts 178°
2026-04-18 23:23 13.04309 -61.22683 5232 ft 142 kts 178°
2026-04-18 23:23 13.03346 -61.22716 4694 ft 137 kts 178°
2026-04-18 23:23 13.02425 -61.22757 4125 ft 133 kts 178°
2026-04-18 23:24 13.01510 -61.22804 3528 ft 138 kts 178°
2026-04-18 23:24 13.00559 -61.22854 3143 ft 136 kts 178°
2026-04-18 23:24 12.99652 -61.22910 2965 ft 121 kts 178°
2026-04-18 23:24 12.98882 -61.22971 2922 ft 104 kts 177°
2026-04-18 23:25 12.98102 -61.23033 2972 ft 119 kts 178°
2026-04-18 23:25 12.97230 -61.23097 2974 ft 132 kts 179°
2026-04-18 23:25 12.96289 -61.23179 2976 ft 136 kts 180°
2026-04-18 23:25 12.95343 -61.23259 2939 ft 137 kts 180°
2026-04-18 23:26 12.94406 -61.23340 2841 ft 135 kts 180°
2026-04-18 23:26 12.93470 -61.23421 2705 ft 137 kts 180°
2026-04-18 23:26 12.92527 -61.23501 2579 ft 137 kts 180°
2026-04-18 23:26 12.91577 -61.23582 2462 ft 135 kts 179°
2026-04-18 23:27 12.90651 -61.23703 2229 ft 134 kts 183°
2026-04-18 23:27 12.89729 -61.23851 1949 ft 136 kts 183°
2026-04-18 23:27 12.88779 -61.24003 1715 ft 139 kts 183°
2026-04-18 23:27 12.87843 -61.24075 1629 ft 128 kts 165°
2026-04-18 23:28 12.87186 -61.23826 1564 ft 81 kts 140°
2026-04-18 23:28 12.86877 -61.23386 1303 ft 73 kts 99°
2026-04-18 23:28 12.87010 -61.22897 1076 ft 73 kts 67°
2026-04-18 23:28 12.87219 -61.22445 896 ft 67 kts 66°
2026-04-18 23:29 12.87409 -61.22039 783 ft 59 kts 73°
2026-04-18 23:29 12.87573 -61.21621 719 ft 64 kts 72°
2026-04-18 23:29 12.87734 -61.21209 590 ft 62 kts 72°
2026-04-18 23:29 12.87868 -61.20814 496 ft 60 kts 75°
2026-04-18 23:30 12.88001 -61.20425 537 ft 59 kts 76°
2026-04-18 23:30 12.88138 -61.20027 476 ft 59 kts 78°
2026-04-18 23:30 12.88270 -61.19620 391 ft 62 kts 74°
2026-04-18 23:30 12.88412 -61.19185 278 ft 62 kts 73°
2026-04-18 23:31 12.88537 -61.18787 157 ft 59 kts 79°
2026-04-18 23:31 12.88671 -61.18385 85 ft 61 kts 75°
2026-04-18 23:31 12.88799 -61.17995 40 ft 45 kts 44°
2026-04-18 23:31 12.88846 -61.17845 40 ft 6 kts 191°
2026-04-18 23:32 12.88837 -61.17874 40 ft 3 kts 259°